sat.trackr.live / text

‹ back to catalog

GAOFEN-6

NORAD 43484 · 2018-048A

PAYLOAD ACTIVE UNKNOWN

§ Identity

Operator
Country
PRC
Launch date
2018-06-02
Launch site
JSC
Launch vehicle
Mass (kg)
RCS (m²)

Purposes: earth_obs

External: N2YO · Heavens-Above · Gunter

§ Orbital elements

Epoch: 2026-09-09T04:14:28.654656Z

Period
97.53 min
Inclination
98.0900°
Eccentricity
0.0009277
Mean motion
14.76434166 rev/d
Perigee alt
634.1 km
Apogee alt
647.1 km
Semi-major
7,018.7 km
B*
1.4175e-5
RAAN
314.9893°
Arg perigee
260.4903°
Mean anomaly
99.5258°
Rev number
44,578

§ Raw data

GAOFEN-61 43484U 18048A   26252.17672054  .00000046  00000+0  14175-4 0  99942 43484  98.0900 314.9893 0009277 260.4903  99.5258 14.76434166445785

JSON: /api/v1/satellites/43484 · /tle

For live sub-satellite position, see the globe view (requires WebGL).

§ Visibility from observer

Set your observer location to see the next 7 days of passes ≥ 10°. The values pass through the URL so the page stays shareable.

No JS? Fill the form by hand. The geolocation button needs JavaScript.

§ Radio — SatNOGS DB

ModeDescriptionDownlinkUplink
FM S-band telemetry 2.205 GHz

1 transmitter · refreshed weekly from db.satnogs.org